Location: Automata Internet Observatory
(34.5060°N, 117.9090°W)
Time: 17:43:48
(UTC-07:00)

OTV 5 (USA 277) - Visible Passes

Search period start: 23 May 2018 00:00
Search period end: 02 June 2018 00:00
Orbit: 308 x 326 km, 54.5° (Epoch: 06 May)

Date Brightness Start Highest point End Pass type
(mag) Time Alt. Az. Time Alt. Az. Time Alt. Az.
27 May ? 04:28:25 15° S 04:29:56 23° SE 04:32:13 10° ENE visible
28 May ? 04:42:30 20° SW 04:44:14 88° NW 04:46:58 10° NE visible
29 May ? 03:25:39 11° E 03:25:39 11° E 03:26:00 10° E visible
29 May ? 04:56:31 11° W 04:58:41 25° NW 05:01:03 10° NNE visible
30 May ? 03:39:35 33° E 03:39:35 33° E 03:41:27 10° NE visible
30 May ? 05:12:35 10° NW 05:13:19 11° NW 05:14:03 10° NNW visible
31 May ? 03:53:26 43° NNW 03:53:26 43° NNW 03:55:50 10° NNE visible
01 Jun ? 04:07:14 16° NW 04:07:44 16° NW 04:09:34 10° N visible
